Torna al catalogo

COSMOS 2251 DEB

AttivoLEO
NORAD 34729·DEBRIS·🇷🇺 Russia

Lanciato Jun 16, 1993 da Plesetsk Cosmodrome

Loading…

Prossimi Passaggi (prossime 24 ore)

TLE

AggiornatoSource: Space-Track

Epoca: Sep 14, 2026, 13:12 UTC

1 34729U 93036YX  26257.55034324  .00009004  00000-0  93395-3 0  9999
2 34729  74.0149 168.5420 0016800 219.0337 196.2385 14.89990543925572

Traccia COSMOS 2251 DEB in tempo reale con AllMySat

Download on the App Store